Regional Weather Roundup
Issued by NWS

Home | Current Version | Previous Version | Text Only | Print | Product List | Glossary Off
Versions: 1 2 3 4 5 6 7 8 9 10 11 12 13 14 15 16 17 18 19 20 21 22 23 24 25 26 27 28 29 30 31 32 33 34 35 36 37 38 39 40 41 42 43 44 45 46 47 48 49 50

000
ASUS43 KMPX 222201
RWRMN
WEATHER ROUNDUP FOR MINNESOTA
NATIONAL WEATHER SERVICE TWIN CITIES/CHANHASSEN MN
500 PM CDT SAT JUL 22 2017


NOTE: "FAIR" INDICATES FEW OR NO CLOUDS BELOW 12,000 FEET WITH NO
SIGNIFICANT WEATHER AND/OR OBSTRUCTIONS TO VISIBILITY. N/A MEANS
CURRENT SKY AND/OR WEATHER CONDITIONS ARE NOT AVAILABLE.

MNZ060>063-068>070-222300-
   Twin Cities Metro

CITY           SKY/WX    TMP DP  RH WIND       PRES   REMARKS
TWIN CITIES    PTSUNNY   90  63  40 NW13      29.80S HX  91
ST PAUL        MOSUNNY   87  62  43 N13G18    29.80S
CRYSTAL        SUNNY     89  61  38 NW12      29.80S
BLAINE         MOSUNNY   90  61  37 NW12      29.81F
LAKEVILLE      PTSUNNY   84  72  65 W9        29.82F
EDEN PRAIRIE   SUNNY     90  64  42 VRB7G17   29.81S HX  91
SOUTH ST PAUL  SUNNY     89  61  37 NW9       29.80S
LAKE ELMO      FAIR      86  64  48 NW12G17   29.82S
$$
MNZ001>005-007-008-013>017-022>024-027-028-222300-
   Northwest Minnesota

CITY           SKY/WX    TMP DP  RH WIND       PRES   REMARKS
BEMIDJI        SUNNY     79  54  42 W21       29.85R
HALLOCK        LGT RAIN  66  63  88 NW12      29.84R
ROSEAU         CLOUDY    70  61  73 W10G17    29.81R
WARROAD        CLOUDY    70  61  73 W12       29.80S
CROOKSTON      MOSUNNY   81  55  41 NW17G26   29.85R
FOSSTON        SUNNY     79  54  41 W17G24    29.86S
DETROIT LAKES  SUNNY     79  54  41 NW13      29.90S
MOORHEAD       SUNNY     82  55  39 NW12G20   29.87S
PARK RAPIDS    SUNNY     83  50  31 W20       29.87R
MAHNOMEN       FAIR      77  58  52 W17       29.87S
$$
MNZ006-009>011-018-025>026-222300-
   North Central Minnesota

CITY           SKY/WX    TMP DP  RH WIND       PRES   REMARKS
BAUDETTE       CLOUDY    74  57  55 W15G23    29.79R
FLAG ISLAND    LGT RAIN  66  61  82 W9        29.77S
INTL FALLS     MOSUNNY   80  56  43 W12G21    29.76S
WASKISH        CLOUDY    79  61  53 W12G21    29.81S
BIG FORK       MOSUNNY   81  57  44 W6G16     29.80F
LONGVILLE      MOSUNNY   81  57  44 W8        29.84S
GRAND RAPIDS   MOSUNNY   81  60  48 W9        29.83S
CRANE LAKE     PTSUNNY   73  61  64 NW3       29.79R THUNDER
ORR            SUNNY     81  54  39 W7        29.76S
COOK           MOSUNNY   81  61  50 W9        29.79S
WALKER         FAIR      80  52  38 NW14G22   29.84F
$$
MNZ012-019>021-037-222300-
   Northeast Minnesota

CITY           SKY/WX    TMP DP  RH WIND       PRES   REMARKS
DULUTH         MOSUNNY   68  60  75 SE9       29.82F
ELY            PTSUNNY   75  61  60 W3        29.79F
HIBBING        MOSUNNY   80  60  50 W6        29.80F
EVELETH        MOSUNNY   78  49  36 W7        29.81F
DULUTH HARBOR  SUNNY     63  57  82 NE12      29.83S
TWO HARBORS    MOSUNNY   68  59  73 E5        29.81F
GRAND MARAIS     N/A     60  53  77 E13       29.83F
G MARAIS ARPRT CLOUDY    63  54  72 E6        29.86R
$$
MNZ029>031-032-039>041-046>048-054>057-064-222300-
   West Central Minnesota

CITY           SKY/WX    TMP DP  RH WIND       PRES   REMARKS
FERGUS FALLS   SUNNY     81  59  47 NW14      29.87S
WHEATON        SUNNY     84  61  45 N8        29.89S
ALEXANDRIA     SUNNY     82  63  52 NW15      29.90S
ELBOW LAKE     FAIR      81  58  46 W13       29.89S HAZE
WADENA         SUNNY     81  57  44 NW14      29.87S
GLENWOOD       SUNNY     84  64  51 NW14      29.89S
APPLETON       SUNNY     88  59  37 NW8       29.86F
BENSON         SUNNY     88  61  40 N15       29.88S
ORTONVILLE     SUNNY     86  63  45 N12       29.87F
MADISON        MOSUNNY   90  64  43 N10       29.87F HX  91
WILLMAR        FAIR      86  66  51 NW14      29.88S
$$
MNZ033>034-036-042>043-049>051-058-059-222300-
   Central Minnesota

CITY           SKY/WX    TMP DP  RH WIND       PRES   REMARKS
ST CLOUD       MOSUNNY   83  66  56 NW9       29.83F
SAUK CENTRE    FAIR      84  65  51 NW15      29.87S
PAYNESVILLE    MOSUNNY   87  63  45 NW13      29.87S
AITKIN         SUNNY     82  61  47 W5        29.82S
PINE RIVER     SUNNY     82  54  36 NW12G21   29.88S
BRAINERD       SUNNY     83  56  39 NW10G22   29.84S
STAPLES        SUNNY     82  55  39 NW13      29.86S
LONG PRAIRIE   FAIR      82  61  47 W12       29.87F
LITTLE FALLS   SUNNY     82  55  39 W10G17    29.85S
LITCHFIELD     MOSUNNY   90  66  45 NW12      29.85S HX  92
BUFFALO        SUNNY     88  58  36 NW13      29.84S
MAPLE LAKE     SUNNY     88  65  47 NW8       29.85S HX  90
HUTCHINSON     MOSUNNY   87  70  57 W9        29.86S HX  91
$$
MNZ037-044-045-052-053-222300-
   East Central Minnesota

CITY           SKY/WX    TMP DP  RH WIND       PRES   REMARKS
PRINCETON      MOSUNNY   88  64  45 NW13      29.83S
MORA           SUNNY     84  64  51 NW7       29.84S
CAMBRIDGE      SUNNY     88  68  51 NW8       29.81S HX  91
RUSH CITY      MOSUNNY   86  67  53 N7        29.82S HAZE
MOOSE LAKE     MOSUNNY   81  63  54 CALM      29.80S
HINCKLEY       FAIR      86  64  48 W8        29.81S
CLOQUET        MOSUNNY   73  63  68 E5        29.82S
MCGREGOR       SUNNY     82  63  51 W8        29.82F
$$
MNZ071>073-080-081-089-090-097-098-222300-
   Southwest Minnesota

CITY           SKY/WX    TMP DP  RH WIND       PRES   REMARKS
MONTEVIDEO     SUNNY     91  70  49 N9        29.87S HX  97
GRANITE FALLS  SUNNY     88  70  54 NW8       29.88F HX  92
CANBY          SUNNY     93  51  23 NW15      29.89S HX  90
MARSHALL       MOSUNNY   86  70  58 N5        29.88F HX  90
REDWOOD FALLS  SUNNY     88  65  46 NW10      29.86S HX  90
OLIVIA         SUNNY     88  68  51 NW10      29.86F HX  91
PIPESTONE      MOSUNNY   84  68  58 W8        29.94S
WINDOM         SUNNY     84  70  61 NW10G16   29.90S
WORTHINGTON    SUNNY     85  67  54 NW13      29.92S
JACKSON        SUNNY     84  68  58 NW16      29.90S
SLAYTON        MOSUNNY   84  68  57 NW9       29.93S
$$
MNZ065>067-074>077-082>085-091>093-222300-
   South Central Minnesota

CITY           SKY/WX    TMP DP  RH WIND       PRES   REMARKS
MANKATO        PTSUNNY   85  71  63 NW13      29.85S HX  90
NEW ULM        MOSUNNY   84  70  61 NW13      29.86S
ST JAMES       SUNNY     86  72  62 NW9       29.87F HX  92
FAIRMONT       MOSUNNY   85  74  69 NW14      29.87S HX  92
GLENCOE        SUNNY     86  72  64 NW10      29.84S HX  92
FARIBAULT      LGT RAIN  82  72  69 W6        29.84S
OWATONNA       SUNNY     84  73  70 W7        29.84F HX  91
WASECA         PTSUNNY   82  72  69 W3        29.86F
ALBERT LEA     SUNNY     82  70  65 W7        29.86F
$$
MNZ078>079-086>088-094>096-222300-
   Southeast Minnesota

CITY           SKY/WX    TMP DP  RH WIND       PRES   REMARKS
ROCHESTER      MOSUNNY   84  73  69 W9        29.85S HX  90
RED WING       SUNNY     90  64  43 W10       29.78F HX  91
STANTON        MOSUNNY   87  71  58 W9        29.81S HX  92
DODGE CENTER   SUNNY     84  70  61 W8        29.86S
WINONA         MOSUNNY   82  70  65 CALM      29.81F
AUSTIN         MOSUNNY   82  70  65 NW8       29.86S
PRESTON        PTSUNNY   81  70  69 CALM      29.87R
$$
ABBREVIATIONS USED IN REMARKS
   TC - TEMPERATURES IN CELSIUS
  WCI - WIND CHILL INDEX
   HX - HEAT INDEX
  VSB - VISIBILITY
$$



USA.gov is the U.S. government's official web portal to all federal, state and local government web resources and services.